Miscellaneous Local Product
Issued by NWS North Platte, NE

Home | Current Version | Previous Version | Text Only | Print | Product List | Glossary On
Versions: 1 2 3 4 5 6 7 8 9 10 11 12 13 14 15 16 17 18 19 20 21 22 23 24 25 26 27 28 29 30 31 32 33 34 35 36 37 38 39 40 41 42 43 44 45 46 47 48 49 50
000
AXUS43 KLBF 021910
MISLBF


WESTERN AND NORTH CENTRAL NEBRASKA HOURLY WEATHER ROUNDUP
NATIONAL WEATHER SERVICE NORTH PLATTE NE
200 PM CDT SUN AUG 02 2015

***STATIONS NOT REPORTING VARIABLES SUCH AS SKY/WEATHER OR
PRESSURE ARE PROVIDED BY THE NEBRASKA DEPARTMENT OF
ROADS...RAWS...AND APRS NETWORKS...AND ARE NOT UNDER
NATIONAL WEATHER SERVICE QUALITY CONTROL***

...OBSERVATIONS IN AND NEAR THE EASTERN PANHANDLE OF NEBRASKA...

CITY           SKY/WX    TMP DP  RH WIND       PRES   REMARKS
PINE RIDGE     SUNNY     86  54  33 E10       29.99S
CHADRON        SUNNY     88  55  32 E12       29.97F
ALLIANCE       SUNNY     93  55  27 NE6       29.99F HX  91
SIDNEY         SUNNY     94  48  20 S12G20    30.03S HX  90
BIG SPRINGS      N/A     92  61  35 E5          N/A  HX  92
$$

...OBSERVATIONS IN NORTH CENTRAL NEBRASKA...

CITY           SKY/WX    TMP DP  RH WIND       PRES   REMARKS
THEDFORD       MOSUNNY   94  60  32 CALM      29.94S HX  93
AINSWORTH      SUNNY     85  65  50 NE10      29.94R
O`NEILL        SUNNY     88  66  47 NE9       29.90R HX  90
ORD            SUNNY     94  61  33 VRB6      29.86S HX  94
BROKEN BOW     MOSUNNY   97  61  30 W9        29.90F HX  97
SPRINGVIEW       N/A     87  62  43 E8G15       N/A
CHAMBERS         N/A     90  65  43 NW3         N/A  HX  92
EWING            N/A     87  72  60 N6          N/A  HX  93
$$

...OBSERVATIONS IN SOUTHWEST NEBRASKA AND FAR NORTHEAST COLORADO...

CITY           SKY/WX    TMP DP  RH WIND       PRES   REMARKS
WRAY           FAIR      97  46  17 S7        29.99F HX  93
HOLYOKE        FAIR      95  54  24 CALM      29.99S HX  93
IMPERIAL       SUNNY     95  59  30 SW6       29.95F HX  94
OGALLALA       SUNNY     88  67  48 E6        29.97S HX  91
NORTH PLATTE   SUNNY     93  66  40 VRB5      29.92F HX  96
MCCOOK         SUNNY     96  60  30 E9        29.92F HX  96
LEXINGTON      SUNNY     94  64  36 S12       29.90F HX  95
PAXTON           N/A     89  67  47 S6          N/A  HX  91
BRADY            N/A     94  72  48 CALM        N/A  HX 101
CALLAWAY         N/A     92  73  53 S5          N/A  HX 100
$$

...NORTH PLATTE AREA...

CITY           SKY/WX    TMP DP  RH WIND       PRES   REMARKS
AIRPORT        SUNNY     93  66  40 VRB5      29.92F HX  96
DOWNTOWN         N/A     94  66  39 CALM        N/A  HX  97
SANDRIDGE        N/A     95  64  35 CALM        N/A  HX  96
HILLCREST        N/A     91  65  42 W6          N/A  HX  93
$$

...SOME WEATHER OBSERVATIONS FROM AROUND THE REGION...

CITY           SKY/WX    TMP DP  RH WIND       PRES   REMARKS
DENVER         PTSUNNY   92  39  15 SE13G25   30.07F
LARAMIE        MOSUNNY   83  26  12 S6        30.23S
CHEYENNE       PTSUNNY   80  41  24 N3        30.16R
SCOTTSBLUFF    SUNNY     92  58  31 CALM      29.99F HX  91
RAPID CITY     SUNNY     82  55  39 NE10      30.01F
PIERRE         SUNNY     86  53  32 NE14G23   29.90R
WINNER         FAIR      89  59  36 NE14      29.90S
SIOUX FALLS    MOSUNNY   85  66  53 N9        29.83R
OMAHA          MOSUNNY   96  71  44 W14       29.81S HX 103
GRAND ISLAND   SUNNY     93  71  48 SW13      29.88F HX 100
KANSAS CITY    MOSUNNY   89  70  53 W10       29.90F HX  94
WICHITA        MOSUNNY   89  70  53 SW14      29.92F HX  94
HAYS           SUNNY     93  66  40 S6        29.91F HX  96
LIBERAL        SUNNY     90  66  45 SE7       29.96S HX  92
GOODLAND       MOSUNNY   92  55  28 S5        29.99F HX  90
$$



USA.gov is the U.S. government's official web portal to all federal, state and local government web resources and services.